This demonstration page uses our WeatherBlox Daily Observations layout. Learn more.

38.89511, -77.03637

Hourly Observations for October 8, 2015

Temp ( °F °C ) Dew Point ( °F °C ) Humidity (%) Winds ( mph kmh ) Pressure ( in mb ) Visibility ( mi km ) Precip ( " mm )
12:52 am 00:52 Clear 61 16.1 58 14.4 90 90 Calm 30.09 1019 10 16.0934 0 0
1:52 am 01:52 Clear 60 15.6 59 15 96 96 S 3 6 30.09 1019 9 14.48406 0 0
2:52 am 02:52 Clear 60 15.6 58 14.4 93 93 Calm 30.09 1019 7 11.26538 0 0
3:52 am 03:52 Clear 59 15 58 14.4 96 96 Calm 30.09 1019 8 12.87472 0 0
4:52 am 04:52 Clear 59 15 57 13.9 93 93 Calm 30.09 1019 9 14.48406 0 0
5:52 am 05:52 Partly Cloudy 58 14.4 56 13.3 93 93 Calm 30.11 1020 8 12.87472 0 0
6:11 am 06:11 Mostly Cloudy 59 15 57 14 94 94 Calm 30.12 1020 7 11.26538 0 0
6:52 am 06:52 Partly Cloudy 58 14.4 57 13.9 97 97 Calm 30.12 1020 7 11.26538 0 0
7:52 am 07:52 Partly Cloudy 59 15 57 13.9 93 93 SE 3 6 30.12 1020 7 11.26538 0 0
8:52 am 08:52 Partly Cloudy with Mist and Fog 62 16.7 58 14.4 86 86 ENE 3 6 30.15 1021 6 9.65604 0 0
9:52 am 09:52 Partly Cloudy 68 20 58 14.4 70 70 N 5 7 30.15 1021 10 16.0934 0 0
10:52 am 10:52 Mostly Sunny 71 21.7 56 13.3 59 59 ENE 3 6 30.15 1021 10 16.0934 0 0
11:52 am 11:52 Partly Cloudy 73 22.8 56 13.3 55 55 E 3 6 30.15 1021 10 16.0934 0 0
12:34 pm 12:34 Mostly Cloudy 73 23 55 13 53 53 E 3 6 30.15 1021 10 16.0934 0 0
12:52 pm 12:52 Partly Cloudy 74 23.3 56 13.3 54 54 E 3 6 30.14 1021 10 16.0934 0 0
1:52 pm 13:52 Mostly Cloudy 77 25 54 12.2 45 45 Calm 30.12 1020 10 16.0934 0 0
2:52 pm 14:52 Partly Cloudy 73 22.8 57 13.9 57 57 S 7 11 30.09 1019 10 16.0934 0 0
2:57 pm 14:57 Mostly Cloudy 73 23 55 13 53 53 S 6 9 30.09 1019 10 16.0934 0 0
3:52 pm 15:52 Mostly Cloudy 74 23.3 57 13.9 56 56 S 8 13 30.08 1019 10 16.0934 0 0
4:52 pm 16:52 Mostly Cloudy 73 22.8 57 13.9 57 57 S 6 9 30.08 1019 10 16.0934 0 0
5:52 pm 17:52 Mostly Cloudy 72 22.2 58 14.4 61 61 S 7 11 30.07 1018 10 16.0934 0 0
6:52 pm 18:52 Mostly Cloudy 69 20.6 56 13.3 63 63 S 6 9 30.07 1018 10 16.0934 0 0
7:52 pm 19:52 Mostly Cloudy 66 18.9 59 15 78 78 S 6 9 30.08 1019 10 16.0934 0 0
8:52 pm 20:52 Partly Cloudy 66 18.9 58 14.4 75 75 S 6 9 30.09 1019 10 16.0934 0 0
9:52 pm 21:52 Mostly Cloudy 66 18.9 57 13.9 73 73 SSW 3 6 30.09 1019 10 16.0934 0 0
10:52 pm 22:52 Mostly Cloudy 64 17.8 57 13.9 78 78 S 6 9 30.09 1019 10 16.0934 0 0
11:52 pm 23:52 Mostly Cloudy 64 17.8 58 14.4 81 81 SSW 7 11 30.08 1019 10 16.0934 0 0

Powered by AerisWeather